Location: Buckenweiler
(49.0667°N, 10.2500°E)
Time: 05:33:57
(UTC+00:00)

Cosmos 1763 Rocket - Pass Details

Date: 18 January 2026
Orbit: 729 x 773 km, 74.0° (Epoch: 17 February)

Event Time Altitude Azimuth Distance (km) Brightness Sun altitude
Exits shadow 04:30:58 18° 355° (N) 1,763 5.3 -24.8°
Maximum altitude 04:34:25 43° 59° (ENE) 1,031 4.5 -24.2°
Drops below altitude 10° 04:39:14 10° 131° (SE) 2,239 6.6 -23.5°
Sets 04:41:41 0° 138° (SE) 3,164 7.4 -23.1°
